Weather History for West Palm Beach, FL

Change the Weather History Date:

Friday, November 26, 2010

  Actual Average Record
Temperature  
Mean Temperature 77 °F 71 °F  
Max Temperature 82 °F 79 °F 87 °F (1948)
Min Temperature 72 °F 64 °F 36 °F (1950)
Degree Days  
Heating Degree Days 0 1  
Month to date heating degree days 9 5  
Since 1 July heating degree days 9 6  
Cooling Degree Days 12 7  
Month to date cooling degree days 214 218  
Year to date cooling degree days 3982 3839  
Growing Degree Days 27 (Base 50)    
Moisture  
Dew Point 66 °F    
Average Humidity 71    
Maximum Humidity 87    
Minimum Humidity 55    
Precipitation  
Precipitation 0.06 in 0.13 in 2.15 in (1921)
Month to date precipitation 1.20 4.22  
Year to date precipitation 51.91 58.42  
Snow  
Snow 0.00 in - - ()
Month to date snowfall 0.0  
Since 1 July snowfall 0.0  
Since 1 September snowfall 0.0  
Snow Depth 0.00 in    
Sea Level Pressure  
Sea Level Pressure 29.99 in    
Wind  
Wind Speed 9 mph (South)    
Max Wind Speed 21 mph    
Max Gust Speed 24 mph    
Visibility 10 miles    
Events Rain    
T = Trace of Precipitation, MM = Missing Value Source: NWS Daily Summary

Daily Weather History Graph

Daily Weather History Graph

Search for Another Location

Airport:

Trip Planner

Search our weather history database for the weather conditions in past years. The results will help you decide how hot, cold, wet, or windy it might be!

Date:

Astronomy

Nov. 26, 2010 Rise Set
Actual Time 6:48 AM EST 5:27 PM EST
Civil Twilight 6:23 AM EST 5:52 PM EST
Nautical Twilight 5:54 AM EST 6:20 PM EST
Astronomical Twilight 5:26 AM EST 6:48 PM EST
Moon 10:24 PM EST (11/26) 11:00 AM EST (11/26)
Length of Visible Light 11h 29m
Length of Day
10h 39m
Waning Gibbous, 73% of the Moon is Illuminated
Nov 26
Waning Gibbous
Nov 28
Last Quarter
Dec 5
New
Dec 13
First Quarter
Dec 21
Full

Hourly Weather History & Observations

Time (EST) Temp. Heat Index Dew Point Humidity Pressure Visibility Wind Dir Wind Speed Gust Speed Precip Events Conditions
12:53 AM 75.9 °F - 66.0 °F 71% 30.02 in 10.0 mi SSE 13.8 mph - N/A   Scattered Clouds
1:53 AM 75.9 °F - 66.0 °F 71% 30.01 in 10.0 mi SSE 13.8 mph - N/A   Scattered Clouds
2:53 AM 75.9 °F - 64.9 °F 69% 30.01 in 10.0 mi SSE 13.8 mph - N/A   Scattered Clouds
3:53 AM 75.9 °F - 64.9 °F 69% 30.00 in 10.0 mi SSE 12.7 mph 20.7 mph N/A   Overcast
4:53 AM 75.9 °F - 64.0 °F 67% 30.00 in 10.0 mi SSE 10.4 mph - N/A   Mostly Cloudy
5:53 AM 75.9 °F - 64.0 °F 67% 30.01 in 10.0 mi SSE 12.7 mph - N/A   Mostly Cloudy
6:53 AM 75.9 °F - 64.0 °F 67% 30.01 in 10.0 mi SE 11.5 mph - N/A   Mostly Cloudy
7:53 AM 77.0 °F - 64.0 °F 64% 30.02 in 10.0 mi SSE 10.4 mph - N/A   Mostly Cloudy
8:53 AM 78.1 °F - 64.0 °F 62% 30.03 in 10.0 mi South 12.7 mph 20.7 mph N/A   Mostly Cloudy
9:53 AM 80.1 °F 81.9 °F 64.9 °F 60% 30.03 in 10.0 mi South 13.8 mph 20.7 mph N/A   Mostly Cloudy
10:53 AM 80.1 °F 82.1 °F 66.0 °F 62% 30.02 in 10.0 mi SSE 13.8 mph - N/A   Mostly Cloudy
11:53 AM 80.1 °F 82.1 °F 66.0 °F 62% 30.00 in 10.0 mi South 8.1 mph - N/A   Overcast
12:53 PM 82.0 °F 83.8 °F 64.9 °F 56% 29.97 in 10.0 mi South 11.5 mph - N/A   Overcast
1:53 PM 82.0 °F 84.1 °F 66.0 °F 58% 29.96 in 10.0 mi SSW 11.5 mph - N/A   Overcast
2:53 PM 80.1 °F 82.1 °F 66.0 °F 62% 29.96 in 10.0 mi SW 10.4 mph - N/A   Overcast
3:29 PM 75.2 °F - 68.0 °F 78% 29.97 in 2.0 mi SW 20.7 mph 24.2 mph 0.00 in Rain Heavy Rain
3:39 PM 73.4 °F - 69.8 °F 88% 29.97 in 5.0 mi SW 10.4 mph - 0.05 in Rain Light Rain
3:53 PM 73.0 °F - 70.0 °F 90% 29.96 in 10.0 mi SSE 5.8 mph - 0.06 in Rain Light Rain
4:53 PM 75.0 °F - 68.0 °F 79% 29.95 in 10.0 mi SE 4.6 mph - N/A   Mostly Cloudy
5:53 PM 73.9 °F - 69.1 °F 85% 29.96 in 10.0 mi South 3.5 mph - N/A   Mostly Cloudy
6:53 PM 73.9 °F - 68.0 °F 82% 29.98 in 10.0 mi South 3.5 mph - N/A   Mostly Cloudy
7:53 PM 73.0 °F - 68.0 °F 84% 29.98 in 10.0 mi South 4.6 mph - N/A   Scattered Clouds
8:53 PM 72.0 °F - 66.9 °F 84% 29.99 in 10.0 mi Calm Calm - N/A   Scattered Clouds
9:53 PM 72.0 °F - 66.0 °F 81% 29.99 in 10.0 mi SSW 6.9 mph - N/A   Scattered Clouds
10:53 PM 72.0 °F - 66.0 °F 81% 29.99 in 10.0 mi SW 5.8 mph - N/A   Scattered Clouds
11:53 PM 72.0 °F - 66.9 °F 84% 29.99 in 10.0 mi SW 5.8 mph - N/A   Mostly Cloudy